Flag for U.S.A. Weather past 2 weeks in Galveston, Texas, U.S.A.

Now
79 °F

Partly cloudy.


Feels Like: 83 °F
Forecast: 78 / 82 °F
Wind: 14 mph from East

Location: Scholes Field

Current Time: May 22, 2015 at 11:18:42 PM

Latest Report: May 22, 2015 at 9:52 PM


Visibility: 10 mi

Pressure: 30.10 "Hg

Humidity: 88%

Dew point: 75 °F

Location of GalvestonLocation

Historic Weather in Galveston — Graph

°F

Galveston temperature yesterday

Maximum temperature yesterday: 84 °F (at 12:01 PM)
Minimum temperature yesterday: 73 °F (at 11:52 PM)
Average temperature yesterday: 79 °F

Past Weeks' High & Low Weather Summary

 TemperatureHumidityPressure
High85 °F (May 20, 11:52 AM)100% (May 8, 6:52 AM)30.16 "Hg (May 8, 6:52 AM)
Low69 °F (May 22, 6:52 AM)70% (May 21, 1:52 PM)29.85 "Hg (May 9, 3:52 AM)
Average79 °F88%30.01 "Hg
* Reported May 7 9:01 PM — May 22 9:52 PM, Galveston, Weather by CustomWeather, © 2015

Note: Actual official high and low records may vary slightly from our data, if they occured in-between our weather recording intervals... More about our weather records

Advertising

Galveston weather history for previous 24 hours

 ConditionsComfort  
Time TempWeatherWind HumidityBarometerVisibility
9:52 PM
Fri, May 22
79 °FPartly cloudy.14 mph88%30.10 "Hg10 mi
8:52 PM78 °FScattered clouds.16 mph90%30.09 "Hg10 mi
7:52 PM78 °FBroken clouds.14 mph90%30.09 "Hg10 mi
6:52 PM79 °FMore clouds than sun.15 mph88%30.08 "Hg10 mi
5:52 PM80 °FBroken clouds.14 mph81%30.10 "Hg10 mi
4:52 PM81 °FMostly cloudy.14 mph79%30.09 "Hg10 mi
3:52 PM78 °FPartly sunny.16 mph84%30.11 "Hg10 mi
2:52 PM79 °FMostly cloudy.14 mph79%30.12 "Hg10 mi
1:52 PM76 °FOvercast.12 mph85%30.13 "Hg10 mi
12:52 PM77 °FMostly cloudy.14 mph82%30.13 "Hg10 mi
11:52 AM77 °FMostly cloudy.15 mph79%30.14 "Hg10 mi
10:59 AM75 °FOvercast.13 mph85%30.14 "Hg10 mi
9:52 AM72 °FLow clouds.18 mph91%30.13 "Hg7 mi
8:52 AM70 °FLow clouds.14 mph90%30.13 "Hg10 mi
7:52 AM69 °FLow clouds.16 mph93%30.12 "Hg10 mi
6:52 AM69 °FLow clouds.16 mph96%30.12 "Hg10 mi
5:52 AM71 °FLow clouds.17 mph93%30.09 "Hg10 mi
5:02 AM72 °FOvercast.16 mph91%30.08 "Hg10 mi
4:52 AM72 °FMostly cloudy.17 mph93%30.08 "Hg10 mi
3:52 AM72 °FMostly cloudy.14 mph93%30.09 "Hg10 mi
2:52 AM73 °FPassing clouds.12 mph90%30.08 "Hg10 mi
1:52 AM74 °FPassing clouds.8 mph91%30.08 "Hg10 mi
12:52 AM72 °FPassing clouds.12 mph93%30.07 "Hg10 mi
11:52 PM
Thu, May 21
73 °FClear.14 mph90%30.07 "Hg10 mi
Weather by CustomWeather, © 2015

See weather overviewHow to use our weather pages